This demonstration page uses our WeatherBlox Daily Observations layout. Learn more.

36.17497, -115.13722

Hourly Observations for August 17, 2019

Temp ( °F °C ) Dew Point ( °F °C ) Humidity (%) Winds ( mph kmh ) Pressure ( in mb ) Visibility ( mi km ) Precip ( " mm )
12:53 am 00:53 Clear 90 32.2 26 -3.3 10 10 WSW 3 6 29.68 1005 10 16.09344 0 0
1:53 am 01:53 Clear 84 28.9 29 -1.7 13 13 N 5 7 29.68 1005 10 16.09344 0 0
2:53 am 02:53 Clear 82 27.8 29 -1.7 14 14 N 3 6 29.68 1005 10 16.09344 0 0
3:53 am 03:53 Clear 82 27.8 31 -0.6 16 16 WNW 5 7 29.68 1005 10 16.09344 0 0
4:53 am 04:53 Clear 79 26.1 35 1.7 20 20 N 6 9 29.68 1005 10 16.09344 0 0
5:53 am 05:53 Clear 78 25.6 37 2.8 23 23 N 7 11 29.71 1006 10 16.09344 0 0
6:53 am 06:53 Sunny 79 26.1 37 2.8 22 22 NNW 3 6 29.74 1007 10 16.09344 0 0
7:53 am 07:53 Sunny 83 28.3 36 2.2 19 19 ESE 3 6 29.74 1007 10 16.09344 0 0
8:53 am 08:53 Sunny 86 30 38 3.3 18 18 SE 3 6 29.77 1008 10 16.09344 0 0
9:53 am 09:53 Sunny 93 33.9 37 2.8 14 14 Calm 29.77 1008 10 16.09344 0 0
10:53 am 10:53 Sunny 99 37.2 30 -1.1 9 9 SSE 16 26 29.74 1007 10 16.09344 0 0
11:53 am 11:53 Sunny 102 38.9 24 -4.4 6 6 S 24 39 29.74 1007 10 16.09344 0 0
12:53 pm 12:53 Sunny 104 40 20 -6.7 5 5 S 17 28 29.71 1006 10 16.09344 0 0
1:53 pm 13:53 Sunny 104 40 18 -7.8 4 4 SSW 16 26 29.71 1006 10 16.09344 0 0
2:53 pm 14:53 Sunny 104 40 15 -9.4 4 4 S 18 30 29.68 1005 10 16.09344 0 0
3:53 pm 15:53 Sunny 104 40 13 -10.6 4 4 SSW 16 26 29.68 1005 10 16.09344 0 0
4:53 pm 16:53 Sunny 104 40 10 -12.2 3 3 SSW 15 24 29.65 1004 10 16.09344 0 0
6:53 pm 18:53 Sunny 101 38.3 17 -8.3 5 5 WSW 12 19 29.65 1004 10 16.09344 0 0
7:53 pm 19:53 Clear 98 36.7 17 -8.3 5 5 SW 9 15 29.65 1004 10 16.09344 0 0
8:53 pm 20:53 Clear 95 35 17 -8.3 6 6 S 7 11 29.68 1005 10 16.09344 0 0
9:53 pm 21:53 Clear 89 31.7 20 -6.7 8 8 S 5 7 29.68 1005 10 16.09344 0 0
10:53 pm 22:53 Clear 88 31.1 18 -7.8 7 7 SSE 5 7 29.71 1006 10 16.09344 0 0
11:53 pm 23:53 Clear 87 30.6 19 -7.2 8 8 SW 5 7 29.71 1006 10 16.09344 0 0

Powered by AerisWeather